Time,TemperatureF,DewpointF,PressureIn,WindDirection,WindDirectionDegrees,WindSpeedMPH,WindSpeedGustMPH,Humidity,HourlyPrecipIn,Conditions,Clouds,dailyrainin,SoftwareType,DateUTC
2013-11-13 00:04:00,21.4,15.3,30.33,SSW,207,0.0,5.0,77,0.00,,SKC,0.00,VWS V14.01,2013-11-13 06:04:00,
2013-11-13 00:09:00,21.4,15.3,30.33,SSW,207,1.0,5.0,77,0.00,,SKC,0.00,VWS V14.01,2013-11-13 06:09:00,
2013-11-13 00:14:00,21.5,15.4,30.33,SSW,207,0.0,5.0,77,0.00,,SKC,0.00,VWS V14.01,2013-11-13 06:14:00,
2013-11-13 00:19:00,21.6,15.8,30.32,SSW,207,1.0,5.0,78,0.00,,SKC,0.00,VWS V14.01,2013-11-13 06:19:00,
2013-11-13 00:24:00,21.5,15.7,30.32,SSW,207,0.0,5.0,78,0.00,,SKC,0.00,VWS V14.01,2013-11-13 06:24:00,
2013-11-13 00:29:00,21.5,15.7,30.32,SSW,207,0.0,5.0,78,0.00,,SKC,0.00,VWS V14.01,2013-11-13 06:29:00,
2013-11-13 00:30:00,21.4,15.6,30.32,SSW,207,0.0,6.0,78,0.00,,SKC,0.00,VWS V14.01,2013-11-13 06:30:00,
2013-11-13 00:34:00,21.3,15.5,30.31,SSW,207,0.0,0.0,78,0.00,,SKC,0.00,VWS V14.01,2013-11-13 06:34:00,
2013-11-13 00:39:00,21.2,15.4,30.31,SSW,207,0.0,0.0,78,0.00,,SKC,0.00,VWS V14.01,2013-11-13 06:39:00,
2013-11-13 00:44:00,21.1,15.3,30.30,SSW,207,0.0,0.0,78,0.00,,SKC,0.00,VWS V14.01,2013-11-13 06:44:00,
2013-11-13 00:49:00,21.1,16.2,30.29,SSW,207,0.0,1.0,81,0.00,,SKC,0.00,VWS V14.01,2013-11-13 06:49:00,
2013-11-13 00:54:00,21.0,15.8,30.29,SSW,207,0.0,1.0,80,0.00,,SKC,0.00,VWS V14.01,2013-11-13 06:54:00,
2013-11-13 00:59:00,20.9,15.7,30.29,SSW,207,0.0,1.0,80,0.00,,SKC,0.00,VWS V14.01,2013-11-13 06:59:00,
2013-11-13 01:00:00,20.9,15.7,30.29,SSW,207,0.0,2.0,80,0.00,,SKC,0.00,VWS V14.01,2013-11-13 07:00:00,
2013-11-13 01:04:00,20.7,15.5,30.28,SSW,207,0.0,4.0,80,0.00,,SKC,0.00,VWS V14.01,2013-11-13 07:04:00,
2013-11-13 01:09:00,20.7,15.5,30.28,SSW,207,0.0,4.0,80,0.00,,SKC,0.00,VWS V14.01,2013-11-13 07:09:00,
2013-11-13 01:15:00,20.5,15.3,30.28,SSW,207,0.0,4.0,80,0.00,,SKC,0.00,VWS V14.01,2013-11-13 07:15:00,
2013-11-13 01:20:00,20.4,15.2,30.27,SSW,207,0.0,4.0,80,0.00,,SKC,0.00,VWS V14.01,2013-11-13 07:20:00,
2013-11-13 01:25:00,20.4,15.5,30.27,SSW,207,0.0,4.0,81,0.00,,SKC,0.00,VWS V14.01,2013-11-13 07:25:00,
2013-11-13 01:30:00,20.4,15.5,30.27,SSW,207,0.0,4.0,81,0.00,,SKC,0.00,VWS V14.01,2013-11-13 07:30:00,
2013-11-13 01:35:00,20.4,15.5,30.26,SSW,207,0.0,5.0,81,0.00,,SKC,0.00,VWS V14.01,2013-11-13 07:35:00,
2013-11-13 01:40:00,20.5,15.6,30.26,SSW,207,1.0,5.0,81,0.00,,SKC,0.00,VWS V14.01,2013-11-13 07:40:00,
2013-11-13 01:45:00,20.5,15.6,30.26,SSW,207,0.0,5.0,81,0.00,,SKC,0.00,VWS V14.01,2013-11-13 07:45:00,
2013-11-13 01:50:00,20.6,15.7,30.26,SSW,207,3.0,6.0,81,0.00,,SKC,0.00,VWS V14.01,2013-11-13 07:50:00,
2013-11-13 01:55:00,20.6,15.7,30.25,SSW,207,0.0,6.0,81,0.00,,SKC,0.00,VWS V14.01,2013-11-13 07:55:00,
2013-11-13 02:00:00,20.6,15.7,30.25,SSW,207,0.0,6.0,81,0.00,,SKC,0.00,VWS V14.01,2013-11-13 08:00:00,
2013-11-13 02:05:00,20.6,15.7,30.25,SSW,207,0.0,1.0,81,0.00,,SKC,0.00,VWS V14.01,2013-11-13 08:05:00,
2013-11-13 02:10:00,20.6,15.7,30.24,SSW,207,0.0,1.0,81,0.00,,SKC,0.00,VWS V14.01,2013-11-13 08:10:00,
2013-11-13 02:15:00,20.6,15.7,30.24,SSW,207,0.0,1.0,81,0.00,,SKC,0.00,VWS V14.01,2013-11-13 08:15:00,
2013-11-13 02:20:00,20.6,15.7,30.24,SSW,207,0.0,1.0,81,0.00,,SKC,0.00,VWS V14.01,2013-11-13 08:20:00,
2013-11-13 02:25:00,20.6,16.0,30.24,SSW,207,0.0,1.0,82,0.00,,SKC,0.00,VWS V14.01,2013-11-13 08:25:00,
2013-11-13 02:30:00,20.7,16.4,30.23,SSW,206,1.0,4.0,83,0.00,,SKC,0.00,VWS V14.01,2013-11-13 08:30:00,
2013-11-13 02:35:00,20.6,16.0,30.23,SSW,206,0.0,0.0,82,0.00,,SKC,0.00,VWS V14.01,2013-11-13 08:35:00,
2013-11-13 02:40:00,20.6,16.0,30.23,SSW,207,0.0,7.0,82,0.00,,SKC,0.00,VWS V14.01,2013-11-13 08:40:00,
2013-11-13 02:45:00,20.7,15.8,30.22,SSW,207,0.0,7.0,81,0.00,,SKC,0.00,VWS V14.01,2013-11-13 08:45:00,
2013-11-13 02:50:00,20.8,15.9,30.22,SSW,207,0.0,7.0,81,0.00,,SKC,0.00,VWS V14.01,2013-11-13 08:50:00,
2013-11-13 02:55:00,20.8,15.9,30.23,SSW,207,2.0,7.0,81,0.00,,SKC,0.00,VWS V14.01,2013-11-13 08:55:00,
2013-11-13 03:00:00,21.0,16.1,30.22,SSW,207,0.0,8.0,81,0.00,,SKC,0.00,VWS V14.01,2013-11-13 09:00:00,
2013-11-13 03:05:00,21.2,16.3,30.22,SSW,206,3.0,6.0,81,0.00,,SKC,0.00,VWS V14.01,2013-11-13 09:05:00,
2013-11-13 03:10:00,21.3,16.1,30.22,SSW,206,1.0,6.0,80,0.00,,SKC,0.00,VWS V14.01,2013-11-13 09:10:00,
2013-11-13 03:15:00,21.3,15.8,30.21,SSW,207,0.0,6.0,79,0.00,,SKC,0.00,VWS V14.01,2013-11-13 09:15:00,
2013-11-13 03:20:00,21.2,15.7,30.20,SSW,207,0.0,6.0,79,0.00,,SKC,0.00,VWS V14.01,2013-11-13 09:20:00,
2013-11-13 03:25:00,21.2,15.7,30.20,SSW,207,0.0,6.0,79,0.00,,SKC,0.00,VWS V14.01,2013-11-13 09:25:00,
2013-11-13 03:30:00,21.2,16.0,30.19,SSW,206,0.0,6.0,80,0.00,,SKC,0.00,VWS V14.01,2013-11-13 09:30:00,
2013-11-13 03:35:00,21.2,16.3,30.19,SSW,206,0.0,0.0,81,0.00,,SKC,0.00,VWS V14.01,2013-11-13 09:35:00,
2013-11-13 03:40:00,21.1,16.2,30.19,SSW,206,0.0,0.0,81,0.00,,SKC,0.00,VWS V14.01,2013-11-13 09:40:00,
2013-11-13 03:45:00,21.1,15.9,30.18,SSW,206,0.0,1.0,80,0.00,,SKC,0.00,VWS V14.01,2013-11-13 09:45:00,
2013-11-13 03:50:00,21.1,15.9,30.18,SSW,206,0.0,1.0,80,0.00,,SKC,0.00,VWS V14.01,2013-11-13 09:50:00,
2013-11-13 03:55:00,21.1,15.9,30.17,SSW,207,1.0,5.0,80,0.00,,SKC,0.00,VWS V14.01,2013-11-13 09:55:00,
2013-11-13 04:00:00,21.3,16.1,30.17,SSW,207,0.0,6.0,80,0.00,,SKC,0.00,VWS V14.01,2013-11-13 10:00:00,
2013-11-13 04:05:00,21.5,16.9,30.17,SSW,206,2.0,5.0,82,0.00,,SKC,0.00,VWS V14.01,2013-11-13 10:05:00,
2013-11-13 04:10:00,21.5,16.6,30.17,SSW,206,0.0,5.0,81,0.00,,SKC,0.00,VWS V14.01,2013-11-13 10:10:00,
2013-11-13 04:16:00,21.5,16.3,30.16,SSW,206,0.0,5.0,80,0.00,,SKC,0.00,VWS V14.01,2013-11-13 10:16:00,
2013-11-13 04:21:00,21.5,16.3,30.16,SSW,207,6.0,6.0,80,0.00,,SKC,0.00,VWS V14.01,2013-11-13 10:21:00,
2013-11-13 04:26:00,21.5,16.3,30.15,SSW,207,0.0,6.0,80,0.00,,SKC,0.00,VWS V14.01,2013-11-13 10:26:00,
2013-11-13 04:30:00,21.5,16.0,30.15,SSW,205,1.0,6.0,79,0.00,,SKC,0.00,VWS V14.01,2013-11-13 10:30:00,
2013-11-13 04:31:00,21.5,16.0,30.15,SSW,205,0.0,6.0,79,0.00,,SKC,0.00,VWS V14.01,2013-11-13 10:31:00,
2013-11-13 04:36:00,21.6,16.4,30.14,SSW,205,0.0,1.0,80,0.00,,SKC,0.00,VWS V14.01,2013-11-13 10:36:00,
2013-11-13 04:41:00,21.7,16.5,30.14,SSW,205,0.0,2.0,80,0.00,,SKC,0.00,VWS V14.01,2013-11-13 10:41:00,
2013-11-13 04:46:00,21.7,16.5,30.13,SSW,196,0.0,7.0,80,0.00,,SKC,0.00,VWS V14.01,2013-11-13 10:46:00,
2013-11-13 04:51:00,21.8,16.3,30.13,SSW,196,0.0,7.0,79,0.00,,SKC,0.00,VWS V14.01,2013-11-13 10:51:00,
2013-11-13 04:56:00,21.8,16.3,30.12,SSW,195,0.0,9.0,79,0.00,,SKC,0.00,VWS V14.01,2013-11-13 10:56:00,
2013-11-13 05:00:00,22.0,16.5,30.12,SSW,196,0.0,9.0,79,0.00,,SKC,0.00,VWS V14.01,2013-11-13 11:00:00,
2013-11-13 05:01:00,22.0,16.5,30.12,SSW,196,0.0,9.0,79,0.00,,SKC,0.00,VWS V14.01,2013-11-13 11:01:00,
2013-11-13 05:06:00,22.1,16.6,30.12,SSW,199,6.0,6.0,79,0.00,,SKC,0.00,VWS V14.01,2013-11-13 11:06:00,
2013-11-13 05:11:00,22.3,16.8,30.12,SSW,200,6.0,7.0,79,0.00,,SKC,0.00,VWS V14.01,2013-11-13 11:11:00,
2013-11-13 05:16:00,22.5,16.7,30.11,SSW,200,2.0,7.0,78,0.00,,SKC,0.00,VWS V14.01,2013-11-13 11:16:00,
2013-11-13 05:21:00,22.5,16.7,30.11,SSW,200,0.0,7.0,78,0.00,,SKC,0.00,VWS V14.01,2013-11-13 11:21:00,
2013-11-13 05:26:00,22.5,16.7,30.11,SSW,200,0.0,7.0,78,0.00,,SKC,0.00,VWS V14.01,2013-11-13 11:26:00,
2013-11-13 05:30:00,22.4,16.6,30.10,SSW,200,0.0,7.0,78,0.00,,SKC,0.00,VWS V14.01,2013-11-13 11:30:00,
2013-11-13 05:31:00,22.4,16.6,30.10,SSW,200,0.0,7.0,78,0.00,,SKC,0.00,VWS V14.01,2013-11-13 11:31:00,
2013-11-13 05:36:00,22.5,17.0,30.09,SSW,199,0.0,5.0,79,0.00,,SKC,0.00,VWS V14.01,2013-11-13 11:36:00,
2013-11-13 05:41:00,22.7,17.2,30.09,SSW,198,0.0,10.0,79,0.00,,SKC,0.00,VWS V14.01,2013-11-13 11:41:00,
2013-11-13 05:46:00,23.1,17.3,30.09,SSW,200,0.0,10.0,78,0.00,,SKC,0.00,VWS V14.01,2013-11-13 11:46:00,
2013-11-13 05:51:00,23.2,17.4,30.09,SSW,199,0.0,10.0,78,0.00,,SKC,0.00,VWS V14.01,2013-11-13 11:51:00,
2013-11-13 05:56:00,23.2,17.1,30.09,SSW,199,0.0,10.0,77,0.00,,SKC,0.00,VWS V14.01,2013-11-13 11:56:00,
2013-11-13 06:00:00,23.0,16.9,30.08,SSW,199,0.0,10.0,77,0.00,,SKC,0.00,VWS V14.01,2013-11-13 12:00:00,
2013-11-13 06:01:00,23.0,16.9,30.08,SSW,199,0.0,10.0,77,0.00,,SKC,0.00,VWS V14.01,2013-11-13 12:01:00,
2013-11-13 06:06:00,22.9,16.8,30.09,SSW,192,0.0,8.0,77,0.00,,SKC,0.00,VWS V14.01,2013-11-13 12:06:00,
2013-11-13 06:11:00,22.9,16.8,30.08,SSW,192,0.0,8.0,77,0.00,,SKC,0.00,VWS V14.01,2013-11-13 12:11:00,
2013-11-13 06:16:00,22.9,17.1,30.08,SSW,192,0.0,8.0,78,0.00,,SKC,0.00,VWS V14.01,2013-11-13 12:16:00,
2013-11-13 06:21:00,22.9,17.1,30.08,SSW,196,0.0,8.0,78,0.00,,SKC,0.00,VWS V14.01,2013-11-13 12:21:00,
2013-11-13 06:26:00,22.8,17.0,30.07,SSW,196,0.0,8.0,78,0.00,,SKC,0.00,VWS V14.01,2013-11-13 12:26:00,
2013-11-13 06:30:00,22.8,17.0,30.07,SSW,196,0.0,8.0,78,0.00,,SKC,0.00,VWS V14.01,2013-11-13 12:30:00,
2013-11-13 06:31:00,22.7,16.9,30.07,SSW,196,0.0,0.0,78,0.00,,SKC,0.00,VWS V14.01,2013-11-13 12:31:00,
2013-11-13 06:36:00,22.7,17.2,30.07,SSW,196,0.0,4.0,79,0.00,,SKC,0.00,VWS V14.01,2013-11-13 12:36:00,
2013-11-13 06:41:00,22.7,17.2,30.07,SSW,196,4.0,6.0,79,0.00,,SKC,0.00,VWS V14.01,2013-11-13 12:41:00,
2013-11-13 06:46:00,22.6,17.1,30.07,SSW,196,0.0,6.0,79,0.00,,SKC,0.00,VWS V14.01,2013-11-13 12:46:00,
2013-11-13 06:51:00,22.7,17.5,30.07,SSW,196,0.0,6.0,80,0.00,,SKC,0.00,VWS V14.01,2013-11-13 12:51:00,
2013-11-13 06:56:00,22.6,17.4,30.07,SSW,196,0.0,7.0,80,0.00,,SKC,0.00,VWS V14.01,2013-11-13 12:56:00,
2013-11-13 07:00:00,22.5,17.0,30.06,SSW,196,0.0,7.0,79,0.00,,SKC,0.00,VWS V14.01,2013-11-13 13:00:00,
2013-11-13 07:01:00,22.5,17.0,30.06,SSW,196,0.0,0.0,79,0.00,,SKC,0.00,VWS V14.01,2013-11-13 13:01:00,
2013-11-13 07:06:00,22.4,16.9,30.06,SSW,196,0.0,1.0,79,0.00,,SKC,0.00,VWS V14.01,2013-11-13 13:06:00,
2013-11-13 07:11:00,22.4,16.9,30.05,SSW,196,0.0,6.0,79,0.00,,SKC,0.00,VWS V14.01,2013-11-13 13:11:00,
2013-11-13 07:16:00,22.3,16.8,30.05,SSW,196,0.0,6.0,79,0.00,,SKC,0.00,VWS V14.01,2013-11-13 13:16:00,
2013-11-13 07:22:00,22.4,17.5,30.05,SSW,196,0.0,6.0,81,0.00,,SKC,0.00,VWS V14.01,2013-11-13 13:22:00,
2013-11-13 07:27:00,22.4,17.5,30.05,SSW,196,0.0,6.0,81,0.00,,SKC,0.00,VWS V14.01,2013-11-13 13:27:00,
2013-11-13 07:30:00,22.4,17.5,30.04,SSW,196,1.0,6.0,81,0.00,,SKC,0.00,VWS V14.01,2013-11-13 13:30:00,
2013-11-13 07:32:00,22.4,17.5,30.04,SSW,196,0.0,1.0,81,0.00,,SKC,0.00,VWS V14.01,2013-11-13 13:32:00,
2013-11-13 07:37:00,22.6,17.7,30.04,SSW,196,0.0,2.0,81,0.00,,SKC,0.00,VWS V14.01,2013-11-13 13:37:00,
2013-11-13 07:42:00,23.0,18.0,30.04,SSW,196,0.0,5.0,81,0.00,,SKC,0.00,VWS V14.01,2013-11-13 13:42:00,
2013-11-13 07:47:00,23.4,18.1,30.04,SSW,197,0.0,5.0,80,0.00,,SKC,0.00,VWS V14.01,2013-11-13 13:47:00,
2013-11-13 07:52:00,23.7,18.1,30.03,SSW,197,0.0,5.0,79,0.00,,SKC,0.00,VWS V14.01,2013-11-13 13:52:00,
2013-11-13 07:57:00,24.0,18.5,30.03,SSW,197,4.0,6.0,79,0.00,,SKC,0.00,VWS V14.01,2013-11-13 13:57:00,
2013-11-13 08:00:00,24.2,18.6,30.03,SSW,196,7.0,7.0,79,0.00,,SKC,0.00,VWS V14.01,2013-11-13 14:00:00,
2013-11-13 08:02:00,24.3,18.4,30.03,SSW,196,0.0,7.0,78,0.00,,SKC,0.00,VWS V14.01,2013-11-13 14:02:00,
2013-11-13 08:08:00,24.5,18.6,30.02,SSW,196,2.0,7.0,78,0.00,,SKC,0.00,VWS V14.01,2013-11-13 14:08:00,
2013-11-13 08:13:00,24.8,18.9,30.02,South,171,0.0,10.0,78,0.00,,SKC,0.00,VWS V14.01,2013-11-13 14:13:00,
2013-11-13 08:18:00,25.1,18.9,30.02,South,179,1.0,10.0,77,0.00,,SKC,0.00,VWS V14.01,2013-11-13 14:18:00,
2013-11-13 08:23:00,25.6,19.4,30.02,SSW,201,2.0,11.0,77,0.00,,SKC,0.00,VWS V14.01,2013-11-13 14:23:00,
2013-11-13 08:28:00,26.0,19.5,30.00,SSW,198,3.0,11.0,76,0.00,,SKC,0.00,VWS V14.01,2013-11-13 14:28:00,
2013-11-13 08:30:00,26.2,19.7,30.01,SSW,198,7.0,11.0,76,0.00,,SKC,0.00,VWS V14.01,2013-11-13 14:30:00,
2013-11-13 08:33:00,26.3,20.1,30.01,SSW,200,7.0,7.0,77,0.00,,SKC,0.00,VWS V14.01,2013-11-13 14:33:00,
2013-11-13 08:38:00,26.6,20.1,30.00,SSE,163,0.0,10.0,76,0.00,,SKC,0.00,VWS V14.01,2013-11-13 14:38:00,
2013-11-13 08:43:00,27.1,20.2,30.00,SSW,207,10.0,12.0,75,0.00,,SKC,0.00,VWS V14.01,2013-11-13 14:43:00,
2013-11-13 08:48:00,27.4,20.5,30.00,WSW,248,0.0,12.0,75,0.00,,SKC,0.00,VWS V14.01,2013-11-13 14:48:00,
2013-11-13 08:53:00,27.8,20.6,30.00,SSW,194,5.0,12.0,74,0.00,,SKC,0.00,VWS V14.01,2013-11-13 14:53:00,
2013-11-13 08:58:00,28.3,21.1,29.99,SSW,194,1.0,12.0,74,0.00,,SKC,0.00,VWS V14.01,2013-11-13 14:58:00,
2013-11-13 09:00:00,28.7,21.5,29.99,SSW,210,7.0,12.0,74,0.00,,SKC,0.00,VWS V14.01,2013-11-13 15:00:00,
2013-11-13 09:03:00,28.8,21.2,29.99,SSW,203,2.0,11.0,73,0.00,,SKC,0.00,VWS V14.01,2013-11-13 15:03:00,
2013-11-13 09:08:00,29.0,21.1,29.99,SSW,207,8.0,11.0,72,0.00,,SKC,0.00,VWS V14.01,2013-11-13 15:08:00,
2013-11-13 09:13:00,29.2,21.6,29.99,SSW,203,4.0,13.0,73,0.00,,SKC,0.00,VWS V14.01,2013-11-13 15:13:00,
2013-11-13 09:18:00,29.5,21.6,29.98,SSW,209,0.0,13.0,72,0.00,,SKC,0.00,VWS V14.01,2013-11-13 15:18:00,
2013-11-13 09:23:00,29.9,22.0,29.98,SSW,211,8.0,13.0,72,0.00,,SKC,0.00,VWS V14.01,2013-11-13 15:23:00,
2013-11-13 09:28:00,30.4,22.5,29.97,South,185,1.0,13.0,72,0.00,,SKC,0.00,VWS V14.01,2013-11-13 15:28:00,
2013-11-13 09:30:00,30.8,22.9,29.97,SSW,204,0.0,13.0,72,0.00,,SKC,0.00,VWS V14.01,2013-11-13 15:30:00,
2013-11-13 09:33:00,31.1,23.1,29.96,SSW,203,7.0,11.0,72,0.00,,SKC,0.00,VWS V14.01,2013-11-13 15:33:00,
2013-11-13 09:38:00,31.6,23.3,29.96,SSW,203,2.0,11.0,71,0.00,,SKC,0.00,VWS V14.01,2013-11-13 15:38:00,
2013-11-13 09:43:00,32.0,23.3,29.95,SSW,208,5.0,16.0,70,0.00,,SKC,0.00,VWS V14.01,2013-11-13 15:43:00,
2013-11-13 09:48:00,32.4,23.7,29.95,South,177,6.0,16.0,70,0.00,,SKC,0.00,VWS V14.01,2013-11-13 15:48:00,
2013-11-13 09:53:00,32.8,24.1,29.94,SSW,206,8.0,16.0,70,0.00,,SKC,0.00,VWS V14.01,2013-11-13 15:53:00,
2013-11-13 09:58:00,33.3,24.2,29.94,SSW,211,9.0,16.0,69,0.00,,SKC,0.00,VWS V14.01,2013-11-13 15:58:00,
2013-11-13 10:00:00,33.5,24.4,29.94,SSW,213,3.0,16.0,69,0.00,,SKC,0.00,VWS V14.01,2013-11-13 16:00:00,
2013-11-13 10:03:00,33.7,24.6,29.94,SSW,202,4.0,11.0,69,0.00,,SKC,0.00,VWS V14.01,2013-11-13 16:03:00,
2013-11-13 10:08:00,34.4,25.0,29.94,SSW,204,3.0,11.0,68,0.00,,SKC,0.00,VWS V14.01,2013-11-13 16:08:00,
2013-11-13 10:13:00,34.7,24.9,29.94,SSW,205,5.0,12.0,67,0.00,,SKC,0.00,VWS V14.01,2013-11-13 16:13:00,
2013-11-13 10:18:00,35.2,25.4,29.93,SW,215,2.0,13.0,67,0.00,,SKC,0.00,VWS V14.01,2013-11-13 16:18:00,
2013-11-13 10:23:00,35.5,25.3,29.93,SSW,211,7.0,13.0,66,0.00,,SKC,0.00,VWS V14.01,2013-11-13 16:23:00,
2013-11-13 10:28:00,35.8,25.2,29.93,SW,222,9.0,20.0,65,0.00,,SKC,0.00,VWS V14.01,2013-11-13 16:28:00,
2013-11-13 10:30:00,36.0,25.4,29.93,SSW,208,6.0,20.0,65,0.00,,SKC,0.00,VWS V14.01,2013-11-13 16:30:00,
2013-11-13 10:33:00,36.1,25.5,29.93,SSW,195,11.0,11.0,65,0.00,,SKC,0.00,VWS V14.01,2013-11-13 16:33:00,
2013-11-13 10:38:00,36.5,25.9,29.92,SW,214,9.0,12.0,65,0.00,,SKC,0.00,VWS V14.01,2013-11-13 16:38:00,
2013-11-13 10:43:00,36.9,26.2,29.92,SW,217,9.0,13.0,65,0.00,,SKC,0.00,VWS V14.01,2013-11-13 16:43:00,
2013-11-13 10:49:00,37.0,26.3,29.91,SSW,202,5.0,13.0,65,0.00,,SKC,0.00,VWS V14.01,2013-11-13 16:49:00,
2013-11-13 10:54:00,37.4,26.4,29.91,SSW,201,9.0,13.0,64,0.00,,SKC,0.00,VWS V14.01,2013-11-13 16:54:00,
2013-11-13 10:59:00,37.7,27.0,29.90,SW,219,18.0,18.0,65,0.00,,SKC,0.00,VWS V14.01,2013-11-13 16:59:00,
2013-11-13 11:00:00,37.8,26.7,29.90,SSW,208,5.0,18.0,64,0.00,,SKC,0.00,VWS V14.01,2013-11-13 17:00:00,
2013-11-13 11:04:00,38.0,26.9,29.89,SSW,211,11.0,14.0,64,0.00,,SKC,0.00,VWS V14.01,2013-11-13 17:04:00,
2013-11-13 11:09:00,38.4,26.9,29.88,SW,215,7.0,14.0,63,0.00,,SKC,0.00,VWS V14.01,2013-11-13 17:09:00,
2013-11-13 11:14:00,38.7,27.6,29.88,SW,223,2.0,14.0,64,0.00,,SKC,0.00,VWS V14.01,2013-11-13 17:14:00,
2013-11-13 11:19:00,39.1,27.2,29.87,SSW,211,9.0,15.0,62,0.00,,SKC,0.00,VWS V14.01,2013-11-13 17:19:00,
2013-11-13 11:24:00,39.4,27.5,29.87,SW,223,13.0,15.0,62,0.00,,SKC,0.00,VWS V14.01,2013-11-13 17:24:00,
2013-11-13 11:29:00,39.7,27.8,29.87,SSW,204,5.0,15.0,62,0.00,,SKC,0.00,VWS V14.01,2013-11-13 17:29:00,
2013-11-13 11:30:00,39.8,27.9,29.87,South,189,2.0,15.0,62,0.00,,SKC,0.00,VWS V14.01,2013-11-13 17:30:00,
2013-11-13 11:34:00,40.0,28.0,29.87,SSW,212,5.0,11.0,62,0.00,,SKC,0.00,VWS V14.01,2013-11-13 17:34:00,
2013-11-13 11:39:00,40.4,28.4,29.86,SSW,202,6.0,11.0,62,0.00,,SKC,0.00,VWS V14.01,2013-11-13 17:39:00,
2013-11-13 11:44:00,40.7,28.3,29.87,SSW,209,5.0,12.0,61,0.00,,SKC,0.00,VWS V14.01,2013-11-13 17:44:00,
2013-11-13 11:49:00,40.8,28.0,29.86,SSW,202,11.0,19.0,60,0.00,,SKC,0.00,VWS V14.01,2013-11-13 17:49:00,
2013-11-13 11:54:00,41.0,28.6,29.86,SSW,205,0.0,19.0,61,0.00,,SKC,0.00,VWS V14.01,2013-11-13 17:54:00,
2013-11-13 11:59:00,41.3,28.5,29.86,SSW,209,6.0,19.0,60,0.00,,SKC,0.00,VWS V14.01,2013-11-13 17:59:00,
2013-11-13 12:00:00,41.4,28.6,29.86,SW,220,5.0,19.0,60,0.00,,SKC,0.00,VWS V14.01,2013-11-13 18:00:00,
2013-11-13 12:04:00,41.7,28.9,29.86,SSW,208,15.0,15.0,60,0.00,,SKC,0.00,VWS V14.01,2013-11-13 18:04:00,
2013-11-13 12:09:00,42.1,28.8,29.86,SW,216,8.0,15.0,59,0.00,,SKC,0.00,VWS V14.01,2013-11-13 18:09:00,
2013-11-13 12:14:00,42.6,29.3,29.87,SW,223,5.0,15.0,59,0.00,,SKC,0.00,VWS V14.01,2013-11-13 18:14:00,
2013-11-13 12:19:00,42.7,29.0,29.85,SSW,212,8.0,19.0,58,0.00,,SKC,0.00,VWS V14.01,2013-11-13 18:19:00,
2013-11-13 12:24:00,42.6,29.3,29.85,SSW,200,6.0,19.0,59,0.00,,SKC,0.00,VWS V14.01,2013-11-13 18:24:00,
2013-11-13 12:29:00,42.8,29.5,29.84,SSW,204,7.0,19.0,59,0.00,,SKC,0.00,VWS V14.01,2013-11-13 18:29:00,
2013-11-13 12:30:00,43.1,29.8,29.84,SSW,209,10.0,19.0,59,0.00,,SKC,0.00,VWS V14.01,2013-11-13 18:30:00,
2013-11-13 12:34:00,43.3,30.0,29.83,SSW,207,4.0,12.0,59,0.00,,SKC,0.00,VWS V14.01,2013-11-13 18:34:00,
2013-11-13 12:39:00,44.0,30.2,29.83,SSW,204,9.0,12.0,58,0.00,,SKC,0.00,VWS V14.01,2013-11-13 18:39:00,
2013-11-13 12:44:00,44.2,30.0,29.83,SSW,200,9.0,15.0,57,0.00,,SKC,0.00,VWS V14.01,2013-11-13 18:44:00,
2013-11-13 12:49:00,44.8,30.9,29.83,SW,221,7.0,15.0,58,0.00,,SKC,0.00,VWS V14.01,2013-11-13 18:49:00,
2013-11-13 12:54:00,44.9,30.2,29.83,SSW,208,11.0,15.0,56,0.00,,SKC,0.00,VWS V14.01,2013-11-13 18:54:00,
2013-11-13 12:59:00,45.0,30.7,29.83,SSW,203,5.0,16.0,57,0.00,,SKC,0.00,VWS V14.01,2013-11-13 18:59:00,
2013-11-13 13:00:00,45.1,30.4,29.82,SW,219,7.0,16.0,56,0.00,,SKC,0.00,VWS V14.01,2013-11-13 19:00:00,
2013-11-13 13:04:00,45.1,30.8,29.82,SSW,205,8.0,14.0,57,0.00,,SKC,0.00,VWS V14.01,2013-11-13 19:04:00,
2013-11-13 13:09:00,45.0,30.7,29.82,SW,220,9.0,18.0,57,0.00,,SKC,0.00,VWS V14.01,2013-11-13 19:09:00,
2013-11-13 13:15:00,45.2,30.9,29.81,SW,215,8.0,18.0,57,0.00,,SKC,0.00,VWS V14.01,2013-11-13 19:15:00,
2013-11-13 13:20:00,45.0,30.7,29.81,SSW,209,7.0,18.0,57,0.00,,SKC,0.00,VWS V14.01,2013-11-13 19:20:00,
2013-11-13 13:25:00,45.0,30.3,29.81,SSW,199,7.0,19.0,56,0.00,,SKC,0.00,VWS V14.01,2013-11-13 19:25:00,
2013-11-13 13:30:00,45.0,31.1,29.81,SSW,198,7.0,19.0,58,0.00,,SKC,0.00,VWS V14.01,2013-11-13 19:30:00,
2013-11-13 13:35:00,45.5,31.2,29.80,SW,215,5.0,10.0,57,0.00,,SKC,0.00,VWS V14.01,2013-11-13 19:35:00,
2013-11-13 13:40:00,45.5,31.2,29.80,SSW,210,9.0,16.0,57,0.00,,SKC,0.00,VWS V14.01,2013-11-13 19:40:00,
2013-11-13 13:45:00,45.5,31.2,29.80,SSW,200,7.0,21.0,57,0.00,,SKC,0.00,VWS V14.01,2013-11-13 19:45:00,
2013-11-13 13:50:00,45.9,31.1,29.80,SSW,195,8.0,21.0,56,0.00,,SKC,0.00,VWS V14.01,2013-11-13 19:50:00,
2013-11-13 13:55:00,46.1,31.3,29.80,SW,218,6.0,21.0,56,0.00,,SKC,0.00,VWS V14.01,2013-11-13 19:55:00,
2013-11-13 14:00:00,46.1,31.7,29.79,SSW,201,10.0,21.0,57,0.00,,SKC,0.00,VWS V14.01,2013-11-13 20:00:00,
2013-11-13 14:05:00,46.1,31.3,29.79,SSW,205,13.0,16.0,56,0.00,,SKC,0.00,VWS V14.01,2013-11-13 20:05:00,
2013-11-13 14:10:00,46.0,31.6,29.79,SW,223,12.0,20.0,57,0.00,,SKC,0.00,VWS V14.01,2013-11-13 20:10:00,
2013-11-13 14:15:00,46.2,31.4,29.78,SW,227,6.0,20.0,56,0.00,,SKC,0.00,VWS V14.01,2013-11-13 20:15:00,
2013-11-13 14:20:00,46.4,31.6,29.79,SSW,208,9.0,20.0,56,0.00,,SKC,0.00,VWS V14.01,2013-11-13 20:20:00,
2013-11-13 14:25:00,46.5,31.7,29.79,SSW,209,9.0,20.0,56,0.00,,SKC,0.00,VWS V14.01,2013-11-13 20:25:00,
2013-11-13 14:30:00,46.7,31.9,29.78,South,177,8.0,20.0,56,0.00,,SKC,0.00,VWS V14.01,2013-11-13 20:30:00,
2013-11-13 14:35:00,46.9,32.0,29.78,SSW,207,8.0,12.0,56,0.00,,SKC,0.00,VWS V14.01,2013-11-13 20:35:00,
2013-11-13 14:40:00,46.9,32.0,29.77,SW,216,6.0,14.0,56,0.00,,SKC,0.00,VWS V14.01,2013-11-13 20:40:00,
2013-11-13 14:45:00,47.0,32.1,29.78,South,190,7.0,14.0,56,0.00,,SKC,0.00,VWS V14.01,2013-11-13 20:45:00,
2013-11-13 14:50:00,47.5,32.6,29.78,SSW,205,6.0,14.0,56,0.00,,SKC,0.00,VWS V14.01,2013-11-13 20:50:00,
2013-11-13 14:55:00,47.5,32.6,29.78,SSW,210,10.0,14.0,56,0.00,,SKC,0.00,VWS V14.01,2013-11-13 20:55:00,
2013-11-13 15:00:00,47.5,32.2,29.78,SW,222,5.0,14.0,55,0.00,,SKC,0.00,VWS V14.01,2013-11-13 21:00:00,
2013-11-13 15:05:00,47.5,32.6,29.78,SW,215,8.0,11.0,56,0.00,,SKC,0.00,VWS V14.01,2013-11-13 21:05:00,
2013-11-13 15:11:00,47.6,32.7,29.79,SW,215,6.0,11.0,56,0.00,,SKC,0.00,VWS V14.01,2013-11-13 21:11:00,
2013-11-13 15:16:00,47.6,32.7,29.78,SW,215,4.0,12.0,56,0.00,,SKC,0.00,VWS V14.01,2013-11-13 21:16:00,
2013-11-13 15:21:00,47.7,33.2,29.78,WSW,238,4.0,12.0,57,0.00,,SKC,0.00,VWS V14.01,2013-11-13 21:21:00,
2013-11-13 15:26:00,47.7,33.2,29.79,SW,216,4.0,12.0,57,0.00,,SKC,0.00,VWS V14.01,2013-11-13 21:26:00,
2013-11-13 15:30:00,47.8,32.9,29.78,SSW,205,5.0,12.0,56,0.00,,SKC,0.00,VWS V14.01,2013-11-13 21:30:00,
2013-11-13 15:31:00,47.8,33.3,29.78,SSW,205,4.0,5.0,57,0.00,,SKC,0.00,VWS V14.01,2013-11-13 21:31:00,
2013-11-13 15:37:00,47.7,33.2,29.79,SSW,206,2.0,6.0,57,0.00,,SKC,0.00,VWS V14.01,2013-11-13 21:37:00,
2013-11-13 15:42:00,47.5,33.0,29.78,SW,215,7.0,7.0,57,0.00,,SKC,0.00,VWS V14.01,2013-11-13 21:42:00,
2013-11-13 15:47:00,47.1,33.1,29.77,SSW,213,4.0,8.0,58,0.00,,SKC,0.00,VWS V14.01,2013-11-13 21:47:00,
2013-11-13 15:52:00,46.7,33.2,29.78,SSW,209,5.0,9.0,59,0.00,,SKC,0.00,VWS V14.01,2013-11-13 21:52:00,
2013-11-13 15:57:00,46.5,33.0,29.78,SSW,205,4.0,9.0,59,0.00,,SKC,0.00,VWS V14.01,2013-11-13 21:57:00,
2013-11-13 16:00:00,46.4,33.3,29.78,SSW,206,5.0,9.0,60,0.00,,SKC,0.00,VWS V14.01,2013-11-13 22:00:00,
2013-11-13 16:02:00,46.4,33.3,29.78,SSW,206,5.0,5.0,60,0.00,,SKC,0.00,VWS V14.01,2013-11-13 22:02:00,
2013-11-13 16:07:00,46.3,33.2,29.78,SSW,205,1.0,8.0,60,0.00,,SKC,0.00,VWS V14.01,2013-11-13 22:07:00,
2013-11-13 16:12:00,46.0,33.3,29.78,SSW,202,5.0,8.0,61,0.00,,SKC,0.00,VWS V14.01,2013-11-13 22:12:00,
2013-11-13 16:17:00,45.9,32.8,29.78,SSW,202,2.0,8.0,60,0.00,,SKC,0.00,VWS V14.01,2013-11-13 22:17:00,
2013-11-13 16:22:00,45.8,33.1,29.78,SSW,204,7.0,8.0,61,0.00,,SKC,0.00,VWS V14.01,2013-11-13 22:22:00,
2013-11-13 16:27:00,45.5,33.2,29.77,SSW,205,2.0,8.0,62,0.00,,SKC,0.00,VWS V14.01,2013-11-13 22:27:00,
2013-11-13 16:30:00,45.2,33.4,29.77,SSW,205,3.0,8.0,63,0.00,,SKC,0.00,VWS V14.01,2013-11-13 22:30:00,
2013-11-13 16:32:00,45.2,33.4,29.77,SSW,205,3.0,4.0,63,0.00,,SKC,0.00,VWS V14.01,2013-11-13 22:32:00,
2013-11-13 16:37:00,45.1,33.3,29.77,SSW,206,6.0,7.0,63,0.00,,SKC,0.00,VWS V14.01,2013-11-13 22:37:00,
2013-11-13 16:42:00,45.0,33.2,29.77,SSW,207,3.0,10.0,63,0.00,,SKC,0.00,VWS V14.01,2013-11-13 22:42:00,
2013-11-13 16:47:00,44.9,33.5,29.77,SSW,207,5.0,10.0,64,0.00,,SKC,0.00,VWS V14.01,2013-11-13 22:47:00,
2013-11-13 16:52:00,44.7,33.7,29.77,SSW,207,6.0,10.0,65,0.00,,SKC,0.00,VWS V14.01,2013-11-13 22:52:00,
2013-11-13 16:57:00,44.5,33.5,29.77,SSW,207,4.0,10.0,65,0.00,,SKC,0.00,VWS V14.01,2013-11-13 22:57:00,
2013-11-13 17:00:00,44.2,33.6,29.77,SSW,207,1.0,10.0,66,0.00,,SKC,0.00,VWS V14.01,2013-11-13 23:00:00,
2013-11-13 17:02:00,44.2,33.6,29.77,SSW,207,0.0,4.0,66,0.00,,SKC,0.00,VWS V14.01,2013-11-13 23:02:00,
2013-11-13 17:07:00,43.9,33.3,29.77,SSW,207,0.0,6.0,66,0.00,,SKC,0.00,VWS V14.01,2013-11-13 23:07:00,
2013-11-13 17:12:00,43.6,33.0,29.78,SSW,207,2.0,7.0,66,0.00,,SKC,0.00,VWS V14.01,2013-11-13 23:12:00,
2013-11-13 17:17:00,43.4,33.2,29.78,SSW,207,2.0,7.0,67,0.00,,SKC,0.00,VWS V14.01,2013-11-13 23:17:00,
2013-11-13 17:22:00,43.2,33.0,29.78,SSW,207,0.0,7.0,67,0.00,,SKC,0.00,VWS V14.01,2013-11-13 23:22:00,
2013-11-13 17:27:00,42.9,33.1,29.78,SSW,207,0.0,7.0,68,0.00,,SKC,0.00,VWS V14.01,2013-11-13 23:27:00,
2013-11-13 17:30:00,42.7,33.2,29.78,SSW,207,0.0,7.0,69,0.00,,SKC,0.00,VWS V14.01,2013-11-13 23:30:00,
2013-11-13 17:32:00,42.6,33.2,29.78,SSW,207,0.0,0.0,69,0.00,,SKC,0.00,VWS V14.01,2013-11-13 23:32:00,
2013-11-13 17:37:00,42.3,32.9,29.78,SSW,207,0.0,3.0,69,0.00,,SKC,0.00,VWS V14.01,2013-11-13 23:37:00,
2013-11-13 17:42:00,42.1,32.7,29.78,SSW,207,0.0,3.0,69,0.00,,SKC,0.00,VWS V14.01,2013-11-13 23:42:00,
2013-11-13 17:47:00,41.9,32.8,29.78,SSW,207,0.0,3.0,70,0.00,,SKC,0.00,VWS V14.01,2013-11-13 23:47:00,
2013-11-13 17:52:00,41.7,32.7,29.78,SSW,207,0.0,3.0,70,0.00,,SKC,0.00,VWS V14.01,2013-11-13 23:52:00,
2013-11-13 17:57:00,41.5,32.5,29.78,SSW,207,1.0,5.0,70,0.00,,SKC,0.00,VWS V14.01,2013-11-13 23:57:00,
2013-11-13 18:00:00,41.5,32.8,29.78,SSW,207,4.0,5.0,71,0.00,,SKC,0.00,VWS V14.01,2013-11-14 00:00:00,
2013-11-13 18:02:00,41.6,32.9,29.78,SSW,207,4.0,6.0,71,0.00,,SKC,0.00,VWS V14.01,2013-11-14 00:02:00,
2013-11-13 18:07:00,41.9,33.2,29.77,SSW,207,0.0,6.0,71,0.00,,SKC,0.00,VWS V14.01,2013-11-14 00:07:00,
2013-11-13 18:13:00,42.0,33.3,29.77,SSW,207,0.0,6.0,71,0.00,,SKC,0.00,VWS V14.01,2013-11-14 00:13:00,
2013-11-13 18:18:00,41.9,33.2,29.78,SSW,207,0.0,6.0,71,0.00,,SKC,0.00,VWS V14.01,2013-11-14 00:18:00,
2013-11-13 18:23:00,41.8,33.1,29.78,SSW,207,1.0,6.0,71,0.00,,SKC,0.00,VWS V14.01,2013-11-14 00:23:00,
2013-11-13 18:28:00,41.6,33.3,29.78,SSW,207,2.0,6.0,72,0.00,,SKC,0.00,VWS V14.01,2013-11-14 00:28:00,
2013-11-13 18:30:00,41.5,33.2,29.78,SSW,207,2.0,6.0,72,0.00,,SKC,0.00,VWS V14.01,2013-11-14 00:30:00,
2013-11-13 18:33:00,41.5,33.2,29.78,SSW,207,3.0,5.0,72,0.00,,SKC,0.00,VWS V14.01,2013-11-14 00:33:00,
2013-11-13 18:38:00,41.4,33.4,29.77,SSW,207,0.0,5.0,73,0.00,,SKC,0.00,VWS V14.01,2013-11-14 00:38:00,
2013-11-13 18:43:00,41.3,33.3,29.77,SSW,207,2.0,5.0,73,0.00,,SKC,0.00,VWS V14.01,2013-11-14 00:43:00,
2013-11-13 18:48:00,41.2,33.2,29.78,SSW,207,3.0,5.0,73,0.00,,SKC,0.00,VWS V14.01,2013-11-14 00:48:00,
2013-11-13 18:53:00,41.1,33.1,29.78,SSW,207,3.0,5.0,73,0.00,,SKC,0.00,VWS V14.01,2013-11-14 00:53:00,
2013-11-13 18:58:00,41.2,33.5,29.78,SSW,207,2.0,6.0,74,0.00,,SKC,0.00,VWS V14.01,2013-11-14 00:58:00,
2013-11-13 19:00:00,41.3,33.7,29.78,SSW,207,1.0,6.0,74,0.00,,SKC,0.00,VWS V14.01,2013-11-14 01:00:00,
2013-11-13 19:03:00,41.3,33.7,29.78,SSW,207,1.0,4.0,74,0.00,,SKC,0.00,VWS V14.01,2013-11-14 01:03:00,
2013-11-13 19:08:00,41.3,33.7,29.78,SSW,207,3.0,5.0,74,0.00,,SKC,0.00,VWS V14.01,2013-11-14 01:08:00,
2013-11-13 19:13:00,41.4,33.8,29.78,SSW,207,2.0,7.0,74,0.00,,SKC,0.00,VWS V14.01,2013-11-14 01:13:00,
2013-11-13 19:18:00,41.4,33.8,29.78,SSW,207,5.0,7.0,74,0.00,,SKC,0.00,VWS V14.01,2013-11-14 01:18:00,
2013-11-13 19:23:00,41.4,34.1,29.78,SSW,207,2.0,7.0,75,0.00,,SKC,0.00,VWS V14.01,2013-11-14 01:23:00,
2013-11-13 19:28:00,41.4,34.1,29.77,SSW,207,4.0,7.0,75,0.00,,SKC,0.00,VWS V14.01,2013-11-14 01:28:00,
2013-11-13 19:30:00,41.4,34.1,29.77,SSW,207,2.0,7.0,75,0.00,,SKC,0.00,VWS V14.01,2013-11-14 01:30:00,
2013-11-13 19:33:00,41.4,34.1,29.77,SSW,207,4.0,6.0,75,0.00,,SKC,0.00,VWS V14.01,2013-11-14 01:33:00,
2013-11-13 19:38:00,41.4,34.1,29.77,SSW,207,5.0,6.0,75,0.00,,SKC,0.00,VWS V14.01,2013-11-14 01:38:00,
2013-11-13 19:43:00,41.3,34.0,29.77,SSW,207,8.0,8.0,75,0.00,,SKC,0.00,VWS V14.01,2013-11-14 01:43:00,
2013-11-13 19:48:00,41.1,34.1,29.77,SSW,207,1.0,8.0,76,0.00,,SKC,0.00,VWS V14.01,2013-11-14 01:48:00,
2013-11-13 19:53:00,41.0,34.0,29.77,SSW,207,4.0,8.0,76,0.00,,SKC,0.00,VWS V14.01,2013-11-14 01:53:00,
2013-11-13 19:58:00,41.1,34.1,29.77,SSW,207,2.0,8.0,76,0.00,,SKC,0.00,VWS V14.01,2013-11-14 01:58:00,
2013-11-13 20:00:00,41.0,34.0,29.77,SSW,207,5.0,8.0,76,0.00,,SKC,0.00,VWS V14.01,2013-11-14 02:00:00,
2013-11-13 20:03:00,41.0,34.0,29.76,SSW,207,2.0,6.0,76,0.00,,SKC,0.00,VWS V14.01,2013-11-14 02:03:00,
2013-11-13 20:08:00,41.1,34.5,29.76,SW,214,4.0,7.0,77,0.00,,SKC,0.00,VWS V14.01,2013-11-14 02:08:00,
2013-11-13 20:13:00,41.5,34.5,29.75,SSW,207,2.0,8.0,76,0.00,,SKC,0.00,VWS V14.01,2013-11-14 02:13:00,
2013-11-13 20:18:00,41.6,34.6,29.75,SSW,208,9.0,9.0,76,0.00,,SKC,0.00,VWS V14.01,2013-11-14 02:18:00,
2013-11-13 20:23:00,41.6,34.6,29.75,SSW,207,3.0,9.0,76,0.00,,SKC,0.00,VWS V14.01,2013-11-14 02:23:00,
2013-11-13 20:29:00,41.6,34.6,29.75,SW,215,7.0,11.0,76,0.00,,SKC,0.00,VWS V14.01,2013-11-14 02:29:00,
2013-11-13 20:30:00,41.5,34.5,29.75,SW,215,2.0,11.0,76,0.00,,SKC,0.00,VWS V14.01,2013-11-14 02:30:00,
2013-11-13 20:34:00,41.5,34.5,29.75,SSW,213,4.0,7.0,76,0.00,,SKC,0.00,VWS V14.01,2013-11-14 02:34:00,
2013-11-13 20:39:00,41.5,34.5,29.75,SW,216,4.0,9.0,76,0.00,,SKC,0.00,VWS V14.01,2013-11-14 02:39:00,
2013-11-13 20:44:00,41.4,34.4,29.75,SW,219,4.0,9.0,76,0.00,,SKC,0.00,VWS V14.01,2013-11-14 02:44:00,
2013-11-13 20:49:00,41.4,34.4,29.75,SSW,213,5.0,9.0,76,0.00,,SKC,0.00,VWS V14.01,2013-11-14 02:49:00,
2013-11-13 20:54:00,41.5,34.5,29.75,SSW,200,7.0,12.0,76,0.00,,SKC,0.00,VWS V14.01,2013-11-14 02:54:00,
2013-11-13 20:59:00,41.5,34.5,29.75,SSW,196,5.0,12.0,76,0.00,,SKC,0.00,VWS V14.01,2013-11-14 02:59:00,
2013-11-13 21:00:00,41.5,34.5,29.75,SSW,196,7.0,12.0,76,0.00,,SKC,0.00,VWS V14.01,2013-11-14 03:00:00,
2013-11-13 21:04:00,41.5,34.8,29.75,SSW,197,4.0,7.0,77,0.00,,SKC,0.00,VWS V14.01,2013-11-14 03:04:00,
2013-11-13 21:09:00,41.4,34.4,29.75,SSW,200,2.0,8.0,76,0.00,,SKC,0.00,VWS V14.01,2013-11-14 03:09:00,
2013-11-13 21:14:00,41.3,34.7,29.75,SSW,201,7.0,9.0,77,0.00,,SKC,0.00,VWS V14.01,2013-11-14 03:14:00,
2013-11-13 21:19:00,41.2,34.5,29.75,SSW,205,2.0,9.0,77,0.00,,SKC,0.00,VWS V14.01,2013-11-14 03:19:00,
2013-11-13 21:24:00,41.1,34.5,29.75,SSW,205,3.0,9.0,77,0.00,,SKC,0.00,VWS V14.01,2013-11-14 03:24:00,
2013-11-13 21:29:00,41.0,34.3,29.75,SSW,213,6.0,9.0,77,0.00,,SKC,0.00,VWS V14.01,2013-11-14 03:29:00,
2013-11-13 21:30:00,41.0,34.3,29.75,SSW,213,7.0,9.0,77,0.00,,SKC,0.00,VWS V14.01,2013-11-14 03:30:00,
2013-11-13 21:34:00,40.9,34.3,29.75,SSW,213,2.0,7.0,77,0.00,,SKC,0.00,VWS V14.01,2013-11-14 03:34:00,
2013-11-13 21:39:00,40.7,34.4,29.75,SW,215,4.0,9.0,78,0.00,,SKC,0.00,VWS V14.01,2013-11-14 03:39:00,
2013-11-13 21:44:00,40.7,34.4,29.75,SW,215,4.0,9.0,78,0.00,,SKC,0.00,VWS V14.01,2013-11-14 03:44:00,
2013-11-13 21:49:00,40.6,34.3,29.75,SW,215,4.0,9.0,78,0.00,,SKC,0.00,VWS V14.01,2013-11-14 03:49:00,
2013-11-13 21:54:00,40.4,34.1,29.75,SW,217,3.0,9.0,78,0.00,,SKC,0.00,VWS V14.01,2013-11-14 03:54:00,
2013-11-13 21:59:00,40.3,34.0,29.75,SW,217,4.0,9.0,78,0.00,,SKC,0.00,VWS V14.01,2013-11-14 03:59:00,
2013-11-13 22:00:00,40.3,34.3,29.75,SW,217,4.0,9.0,79,0.00,,SKC,0.00,VWS V14.01,2013-11-14 04:00:00,
2013-11-13 22:04:00,40.2,34.2,29.75,SW,217,0.0,6.0,79,0.00,,SKC,0.00,VWS V14.01,2013-11-14 04:04:00,
2013-11-13 22:09:00,40.0,34.0,29.75,SW,217,1.0,6.0,79,0.00,,SKC,0.00,VWS V14.01,2013-11-14 04:09:00,
2013-11-13 22:15:00,39.8,33.8,29.75,SW,217,2.0,6.0,79,0.00,,SKC,0.00,VWS V14.01,2013-11-14 04:15:00,
2013-11-13 22:20:00,39.8,33.8,29.75,SW,219,2.0,9.0,79,0.00,,SKC,0.00,VWS V14.01,2013-11-14 04:20:00,
2013-11-13 22:25:00,39.7,34.0,29.75,SW,219,4.0,9.0,80,0.00,,SKC,0.00,VWS V14.01,2013-11-14 04:25:00,
2013-11-13 22:30:00,39.7,34.0,29.74,SW,219,2.0,9.0,80,0.00,,SKC,0.00,VWS V14.01,2013-11-14 04:30:00,
2013-11-13 22:35:00,39.6,34.0,29.74,SW,219,5.0,5.0,80,0.00,,SKC,0.00,VWS V14.01,2013-11-14 04:35:00,
2013-11-13 22:40:00,39.4,33.8,29.74,SW,219,7.0,7.0,80,0.00,,SKC,0.00,VWS V14.01,2013-11-14 04:40:00,
2013-11-13 22:45:00,39.2,33.9,29.74,SW,219,1.0,7.0,81,0.00,,SKC,0.00,VWS V14.01,2013-11-14 04:45:00,
2013-11-13 22:50:00,39.1,33.8,29.74,SW,219,3.0,7.0,81,0.00,,SKC,0.00,VWS V14.01,2013-11-14 04:50:00,
2013-11-13 22:55:00,39.0,33.7,29.74,SW,219,5.0,7.0,81,0.00,,SKC,0.00,VWS V14.01,2013-11-14 04:55:00,
2013-11-13 23:00:00,38.9,33.6,29.74,SW,219,4.0,7.0,81,0.00,,SKC,0.00,VWS V14.01,2013-11-14 05:00:00,
2013-11-13 23:01:00,38.9,33.9,29.74,SW,219,5.0,7.0,82,0.00,,SKC,0.00,VWS V14.01,2013-11-14 05:01:00,
2013-11-13 23:03:00,38.9,33.6,29.74,SW,219,0.0,5.0,81,0.00,,SKC,0.00,VWS V14.01,2013-11-14 05:03:00,
2013-11-13 23:04:00,38.8,33.5,29.74,SW,218,6.0,6.0,81,0.00,,SKC,0.00,VWS V14.01,2013-11-14 05:04:00,
2013-11-13 23:06:00,38.8,33.8,29.74,SW,218,4.0,6.0,82,0.00,,SKC,0.00,VWS V14.01,2013-11-14 05:06:00,
2013-11-13 23:09:00,38.8,33.5,29.74,SW,218,5.0,6.0,81,0.00,,SKC,0.00,VWS V14.01,2013-11-14 05:09:00,
2013-11-13 23:13:00,38.9,33.9,29.74,SW,217,2.0,7.0,82,0.00,,SKC,0.00,VWS V14.01,2013-11-14 05:13:00,
2013-11-13 23:18:00,38.8,33.5,29.74,SW,217,3.0,7.0,81,0.00,,SKC,0.00,VWS V14.01,2013-11-14 05:18:00,
2013-11-13 23:23:00,38.7,33.7,29.74,SW,217,0.0,7.0,82,0.00,,SKC,0.00,VWS V14.01,2013-11-14 05:23:00,
2013-11-13 23:28:00,38.5,33.5,29.74,SW,217,6.0,7.0,82,0.00,,SKC,0.00,VWS V14.01,2013-11-14 05:28:00,
2013-11-13 23:30:00,38.5,33.5,29.74,SW,217,4.0,7.0,82,0.00,,SKC,0.00,VWS V14.01,2013-11-14 05:30:00,
2013-11-13 23:33:00,38.4,33.4,29.74,SW,217,2.0,4.0,82,0.00,,SKC,0.00,VWS V14.01,2013-11-14 05:33:00,
2013-11-13 23:39:00,38.3,33.3,29.74,SW,218,3.0,6.0,82,0.00,,SKC,0.00,VWS V14.01,2013-11-14 05:39:00,
2013-11-13 23:44:00,38.2,33.2,29.74,SW,218,3.0,6.0,82,0.00,,SKC,0.00,VWS V14.01,2013-11-14 05:44:00,
2013-11-13 23:49:00,37.9,33.2,29.74,SW,218,1.0,6.0,83,0.00,,SKC,0.00,VWS V14.01,2013-11-14 05:49:00,
2013-11-13 23:54:00,37.7,33.0,29.73,SW,218,5.0,6.0,83,0.00,,SKC,0.00,VWS V14.01,2013-11-14 05:54:00,
2013-11-13 23:59:00,37.8,33.1,29.74,SW,218,1.0,6.0,83,0.00,,SKC,0.00,VWS V14.01,2013-11-14 05:59:00,